{"data":{"norad_id":69285,"intl_designator":"2026-118U","name":"KUIPER-00601","alt_names":[],"object_type":"PAYLOAD","status":"ACTIVE","operator":null,"country":"US","launch_date":"2026-05-29","launch_site_code":"AFETR","launch_vehicle":null,"mission":null,"orbit_class":"UNKNOWN","rcs_meters":null,"size_class":null,"mass_kg":null,"dimensions":null,"purposes":[],"wikipedia_slug":null,"has_3d_model":false,"image_url":null,"decayed_at":null,"tle_current":{"epoch":"2026-09-19T16:44:09.195360Z","epoch_age_seconds":99440,"freshness":"FRESH","line1":"1 69285U 26118U   26262.69732865  .00001091  00000+0  17206-3 0  9991","line2":"2 69285  51.9015 342.7420 0000363  87.9951 272.1053 14.79926328 18152","mean_motion":14.79926328,"eccentricity":3.63e-5,"inclination_deg":51.9015,"raan_deg":342.742,"arg_perigee_deg":87.9951,"mean_anomaly_deg":272.1053,"bstar":0.00017206,"rev_number":1815,"period_min":97.302140840081,"perigee_km":629.30231182381,"apogee_km":629.81107038578,"semimajor_km":7007.6936911048,"source":"CELESTRAK","updated_at":"2026-09-20T09:00:24.781450Z"}}}